(178613) = 2000 EF78 = 2004 CR83

Discovered at Socorro on 2000-03-05 by LINEAR.

Orbit

Orbit type: Main Belt

Note: WebGL enabled browser required.

epoch2023-09-13.0
epoch JD2460200.5
perihelion date2020-10-10.76028
perihelion JD2459133.26028
argument of perihelion (°)57.96633
ascending node (°)148.23946
inclination (°)11.88274
eccentricity0.2006976
perihelion distance (AU)2.0271285
Tisserand w.r.t. Jupiter3.4
ΔV w.r.t. Earth (km/sec)9.6
semimajor axis (AU)2.5361221
mean anomaly (°)260.44174
mean daily motion (°/day)0.24403300
aphelion distance (AU)3.045
period (years)4.04
P-vector [x]-0.88765165
P-vector [y]-0.46042038
P-vector [z]-0.00936015
Q-vector [x]0.44757940
Q-vector [y]-0.85775515
Q-vector [z]-0.25284141
absolute magnitude17.32
phase slope0.15
uncertainty0
referenceMPEC 2024-A158
observations used204
oppositions14
arc length (days)8746
first opposition used2000
last opposition used2024
residual rms (arc-secs)0.68
perturbers coarse indicatorM-v
perturbers precise indicator003Ek
first observation date used2000-02-02.0
last observation date used2024-01-13.0
computer nameMPCLINUX
JD of orbit computation2456494.371373
perihelion JD uncertainty (days)8.4401E-05
argument of perihelion uncertainty (°)2.7688E-05
ascending node uncertainty (°)1.9253E-05
inclination uncertainty (°)8.5894E-06
eccentricity uncertainty 7.0835E-08
perihelion distance uncertainty (AU)1.7889E-07
Minimum Orbit Intersection Distances (in AU)
for orbit epoch: 2460200.5, reference: E2024-AF8
Mercury1.59903
Venus1.31411
Earth1.05166
Mars0.43724
Jupiter1.98318
Saturn6.22825
Uranus16.2405
Neptune26.829

Observations

209 total observations over interval: 2000 02 02.44879 – 2024 01 13.333874
These data are available for download (format description).

Date (UT) J2000 RA J2000 Dec Magn Location Ref
2000 02 02.44879 10 53 47.19 +07 24 08.7 20.4 V 691 – Steward Observatory, Kitt Peak-Spacewatch MPS 16909
2000 02 02.47001 10 53 46.71 +07 24 21.2 20.4 V 691 – Steward Observatory, Kitt Peak-Spacewatch MPS 16909
2000 02 02.49105 10 53 46.24 +07 24 33.0 20.0 V 691 – Steward Observatory, Kitt Peak-Spacewatch MPS 16909
2000 02 03.47573 10 53 24.79 +07 34 01.8 20.0 V 691 – Steward Observatory, Kitt Peak-Spacewatch MPS 16909
2000 02 03.49689 10 53 24.28 +07 34 14.2 19.7 V 691 – Steward Observatory, Kitt Peak-Spacewatch MPS 16909
2000 02 03.51800 10 53 23.76 +07 34 26.4 19.8 V 691 – Steward Observatory, Kitt Peak-Spacewatch MPS 16909
2000 02 04.40848 10 53 03.21 +07 43 13.6 20.0 V 691 – Steward Observatory, Kitt Peak-Spacewatch MPS 16909
2000 02 04.41419 10 53 03.07 +07 43 17.1 20.0 V 691 – Steward Observatory, Kitt Peak-Spacewatch MPS 16909
2000 02 04.41968 10 53 02.93 +07 43 20.3 20.0 V 691 – Steward Observatory, Kitt Peak-Spacewatch MPS 16909
2000 02 05.44795 10 52 37.30 +07 53 42.4 20.0 V 691 – Steward Observatory, Kitt Peak-Spacewatch MPS 16909
2000 02 05.45395 10 52 37.15 +07 53 46.1 19.9 V 691 – Steward Observatory, Kitt Peak-Spacewatch MPS 16909
2000 02 05.45975 10 52 36.99 +07 53 50.1 19.6 V 691 – Steward Observatory, Kitt Peak-Spacewatch MPS 16909
2000 02 06.42550 10 52 11.59 +08 03 47.8 19.8 V 691 – Steward Observatory, Kitt Peak-Spacewatch MPS 16909
2000 02 06.43151 10 52 11.43 +08 03 51.4 19.7 V 691 – Steward Observatory, Kitt Peak-Spacewatch MPS 16909
2000 02 06.43747 10 52 11.23 +08 03 55.5 19.9 V 691 – Steward Observatory, Kitt Peak-Spacewatch MPS 16909
2000 03 05.30121 10 33 11.27 +13 41 50.1 19.2   704 – Lincoln Laboratory ETS, New Mexico MPS 11463
2000 03 05.32762 10 33 09.97 +13 42 09.6 19.9   704 – Lincoln Laboratory ETS, New Mexico MPS 11463
2000 03 05.34086 10 33 09.36 +13 42 19.0 19.4   704 – Lincoln Laboratory ETS, New Mexico MPS 11463
2000 03 05.35409 10 33 08.68 +13 42 28.0 19.7   704 – Lincoln Laboratory ETS, New Mexico MPS 11463
2000 03 12.27081 10 28 06.41 +15 03 01.8 19.4   704 – Lincoln Laboratory ETS, New Mexico MPS 11463
2000 03 12.28365 10 28 05.88 +15 03 09.9 20.0   704 – Lincoln Laboratory ETS, New Mexico MPS 11463
2000 03 12.29638 10 28 05.35 +15 03 20.0 19.9   704 – Lincoln Laboratory ETS, New Mexico MPS 11463
2000 03 12.30927 10 28 04.80 +15 03 27.9 19.7   704 – Lincoln Laboratory ETS, New Mexico MPS 11463
2000 03 12.32217 10 28 04.12 +15 03 36.0 20.0   704 – Lincoln Laboratory ETS, New Mexico MPS 11463
2001 08 20.11804 21 41 45.42 -12 32 46.5 19.2 R 807 – Cerro Tololo Observatory, La Serena MPS 100850
2001 08 20.19624 21 41 41.30 -12 33 27.8   807 – Cerro Tololo Observatory, La Serena MPS 100850
2002 10 31.320170 03 08 39.784 +00 00 52.93 21.78 V 645 – Apache Point-Sloan Digital Sky Survey MPS 106089
2002 10 31.323642 03 08 39.594 +00 00 51.73 22.75   645 – Apache Point-Sloan Digital Sky Survey MPS 106089
2004 02 12.41767 10 08 50.65 +10 51 48.3 20.2 V 691 – Steward Observatory, Kitt Peak-Spacewatch MPS 100198
2004 02 12.44594 10 08 49.25 +10 52 08.0 20.2 V 691 – Steward Observatory, Kitt Peak-Spacewatch MPS 100198
2004 02 12.47393 10 08 47.91 +10 52 27.7 20.2 V 691 – Steward Observatory, Kitt Peak-Spacewatch MPS 100198
2004 02 17.27523 10 04 58.66 +11 49 26.2 19.5   704 – Lincoln Laboratory ETS, New Mexico MPS 100198
2004 02 17.28703 10 04 58.07 +11 49 35.7 19.7   704 – Lincoln Laboratory ETS, New Mexico MPS 100198
2004 02 17.29888 10 04 57.40 +11 49 43.8 20.3   704 – Lincoln Laboratory ETS, New Mexico MPS 100198
2004 02 29.32829 09 55 10.31 +14 13 32.0 20.2 V 691 – Steward Observatory, Kitt Peak-Spacewatch MPS 100730
2004 02 29.35623 09 55 08.96 +14 13 51.4 20.5 V 691 – Steward Observatory, Kitt Peak-Spacewatch MPS 100730
2004 02 29.38515 09 55 07.54 +14 14 11.2 20.3 V 691 – Steward Observatory, Kitt Peak-Spacewatch MPS 100730
2004 03 18.11347 09 44 19.82 +17 13 13.4 20.6 V 691 – Steward Observatory, Kitt Peak-Spacewatch MPS 102241
2004 03 18.14773 09 44 18.95 +17 13 30.4 20.3 V 691 – Steward Observatory, Kitt Peak-Spacewatch MPS 102241
2004 03 18.17772 09 44 18.17 +17 13 45.3 20.3 V 691 – Steward Observatory, Kitt Peak-Spacewatch MPS 102241
2006 10 13.45222 03 05 14.92 +00 50 16.6 22.9   705 – Apache Point MPS 195421
2006 10 13.45471 03 05 14.95 +00 50 16.6 22.0 V 705 – Apache Point MPS 195421
2006 10 16.46341 03 03 11.70 +00 29 59.5 23.3   705 – Apache Point MPS 195421
2006 10 16.46425 03 03 11.69 +00 29 59.2 22.2 V 705 – Apache Point MPS 195421
2006 10 17.44448 03 02 29.58 +00 23 26.4 21.8   705 – Apache Point MPS 195421
2006 10 17.44531 03 02 29.54 +00 23 26.1 21.5 V 705 – Apache Point MPS 195421
2006 10 31.35686 02 51 13.27 -01 02 20.5 22.0   705 – Apache Point MPS 195421
2006 10 31.35770 02 51 13.23 -01 02 20.7 21.5 V 705 – Apache Point MPS 195421
2008 02 11.27059 09 29 33.21 +12 00 20.3 19.7   704 – Lincoln Laboratory ETS, New Mexico MPS 237353
2008 02 11.29510 09 29 31.88 +12 00 36.6 20.1   704 – Lincoln Laboratory ETS, New Mexico MPS 237353
2008 02 11.30749 09 29 31.20 +12 00 44.7 19.9   704 – Lincoln Laboratory ETS, New Mexico MPS 237353
2008 02 11.31991 09 29 30.50 +12 00 53.8 19.9   704 – Lincoln Laboratory ETS, New Mexico MPS 237353
2008 02 24.31641 09 18 31.24 +14 25 37.9 19.9 V G96 – Mt. Lemmon Survey MPS 239303
2008 02 24.32138 09 18 31.03 +14 25 41.0 19.7 V G96 – Mt. Lemmon Survey MPS 239303
2008 02 24.32639 09 18 30.78 +14 25 44.3 20.1 V G96 – Mt. Lemmon Survey MPS 239303
2008 02 24.33137 09 18 30.52 +14 25 47.8 20.0 V G96 – Mt. Lemmon Survey MPS 239303
2008 03 06.20503 09 11 10.90 +16 16 38.5   701 – Junk Bond Observatory, Sierra Vista MPS 240597
2008 03 06.29938 09 11 07.62 +16 17 33.3   701 – Junk Bond Observatory, Sierra Vista MPS 240597
2008 03 06.32293 09 11 06.77 +16 17 44.5   701 – Junk Bond Observatory, Sierra Vista MPS 240597
2008 03 06.35215 09 11 05.82 +16 18 01.0   701 – Junk Bond Observatory, Sierra Vista MPS 240597
2008 03 29.24383 09 06 52.02 +18 59 14.9 20.7 V G96 – Mt. Lemmon Survey MPS 245612
2008 03 29.25060 09 06 52.09 +18 59 16.8 20.8 V G96 – Mt. Lemmon Survey MPS 245612
2008 03 29.25737 09 06 52.16 +18 59 18.6 20.3 V G96 – Mt. Lemmon Survey MPS 245612
2008 03 29.26414 09 06 52.20 +18 59 20.4 20.7 V G96 – Mt. Lemmon Survey MPS 245612
2012 02 01.31645 08 57 07.92 +11 19 59.9 20.0 V G96 – Mt. Lemmon Survey MPS 411286
2012 02 01.32460 08 57 07.45 +11 20 04.6 19.9 V G96 – Mt. Lemmon Survey MPS 411286
2012 02 01.33266 08 57 06.98 +11 20 09.2 19.9 V G96 – Mt. Lemmon Survey MPS 411286
2012 02 01.34080 08 57 06.51 +11 20 14.0 20.0 V G96 – Mt. Lemmon Survey MPS 411286
2012 02 22.41697 08 38 59.176 +14 53 53.67 21.1 w F51 – Pan-STARRS 1, Haleakala MPS 413930
2012 02 22.45073 08 38 57.655 +14 54 13.05 20.6 w F51 – Pan-STARRS 1, Haleakala MPS 413930
2012 02 22.46744 08 38 56.901 +14 54 22.82 20.7 w F51 – Pan-STARRS 1, Haleakala MPS 413930
2012 03 14.19615 08 30 19.80 +17 49 57.3 20.6 V G96 – Mt. Lemmon Survey MPS 416972
2012 03 14.20369 08 30 19.72 +17 50 00.1 20.9 V G96 – Mt. Lemmon Survey MPS 416972
2012 03 14.21126 08 30 19.65 +17 50 03.4 20.6 V G96 – Mt. Lemmon Survey MPS 416972
2012 03 14.21888 08 30 19.62 +17 50 06.1 20.7 V G96 – Mt. Lemmon Survey MPS 416972
2012 03 29.11602 08 32 48.91 +19 11 43.9 20.6 V G96 – Mt. Lemmon Survey MPS 419918
2012 03 29.12125 08 32 48.98 +19 11 44.8 20.6 V G96 – Mt. Lemmon Survey MPS 419918
2012 03 29.12645 08 32 49.09 +19 11 47.2 21.2 V G96 – Mt. Lemmon Survey MPS 419918
2012 03 29.13171 08 32 49.20 +19 11 48.5 21.3 V G96 – Mt. Lemmon Survey MPS 419918
2013 07 12.49175 20 58 33.645 -09 02 52.40 20.8 w F51 – Pan-STARRS 1, Haleakala MPS 472451
2013 07 12.50672 20 58 32.964 -09 02 58.14 20.7 w F51 – Pan-STARRS 1, Haleakala MPS 472451
2013 07 12.52170 20 58 32.289 -09 03 03.91 20.8 w F51 – Pan-STARRS 1, Haleakala MPS 472451
2013 07 12.53670 20 58 31.590 -09 03 09.73 21.0 w F51 – Pan-STARRS 1, Haleakala MPS 472451
2016 01 04.54891 08 48 17.380 +08 31 27.04 20.7 w F51 – Pan-STARRS 1, Haleakala MPS 667324
2016 01 04.56030 08 48 16.963 +08 31 30.08 20.6 w F51 – Pan-STARRS 1, Haleakala MPS 667324
2016 01 04.57169 08 48 16.549 +08 31 33.34 20.6 w F51 – Pan-STARRS 1, Haleakala MPS 667324
